This is the latest recevied weather packets stored in our database for station/object SP1BMW-13. If no packets are shown the sender has not sent any weather packets the latest 10 day(s).
| Time | Temp. | Humidity | Pressure | Rain* | Wind** | Luminosity | Snow |
|---|---|---|---|---|---|---|---|
| 1778307305 | 11.11° C | 64% | 1021.2 hPa | 0 mm | 0.45 m/s, 302° | 222 W/m² | - |
| 1778307244 | 11.11° C | 64% | 1021.3 hPa | 0 mm | 0.45 m/s, 325° | 219 W/m² | - |
| 1778307185 | 11.11° C | 64% | 1021.3 hPa | 0 mm | 0 m/s | 217 W/m² | - |
| 1778307126 | 11.11° C | 64% | 1021.2 hPa | 0 mm | 0 m/s | 215 W/m² | - |
| 1778307065 | 10.56° C | 63% | 1021.2 hPa | 0 mm | 0 m/s | 212 W/m² | - |
| 1778307005 | 10.56° C | 64% | 1021.1 hPa | 0 mm | 0 m/s | 209 W/m² | - |
| 1778306945 | 10.56° C | 65% | 1021.3 hPa | 0 mm | 0 m/s | 207 W/m² | - |
| 1778306885 | 10.56° C | 66% | 1021.1 hPa | 0 mm | 0 m/s | 205 W/m² | - |
| 1778306825 | 10.56° C | 66% | 1021.2 hPa | 0 mm | 0 m/s | 203 W/m² | - |
| 1778306765 | 10° C | 67% | 1021.1 hPa | 0 mm | 0 m/s | 200 W/m² | - |
| 1778306705 | 10° C | 68% | 1021.4 hPa | 0 mm | 0 m/s | 198 W/m² | - |
| 1778306645 | 10° C | 71% | 1021.3 hPa | 0 mm | 0 m/s | 196 W/m² | - |
| 1778306585 | 10° C | 70% | 1021.2 hPa | 0 mm | 0 m/s | 193 W/m² | - |
| 1778306525 | 9.44° C | 71% | 1021.2 hPa | 0 mm | 0.45 m/s, 344° | 191 W/m² | - |
| 1778306465 | 9.44° C | 71% | 1021.1 hPa | 0 mm | 0 m/s | 188 W/m² | - |
| 1778306405 | 9.44° C | 70% | 1021.1 hPa | 0 mm | 0 m/s | 186 W/m² | - |
| 1778306345 | 10° C | 70% | 1021.2 hPa | 0 mm | 0 m/s | 184 W/m² | - |
| 1778306285 | 10° C | 70% | 1021.2 hPa | 0 mm | 0.89 m/s, 306° | 182 W/m² | - |
| 1778306225 | 10.56° C | 70% | 1021.4 hPa | 0 mm | 0.89 m/s, 303° | 179 W/m² | - |
| 1778306165 | 10.56° C | 69% | 1021.2 hPa | 0 mm | 0.45 m/s, 326° | 177 W/m² | - |
| 1778306105 | 10.56° C | 67% | 1021.3 hPa | 0 mm | 0.89 m/s, 305° | 175 W/m² | - |
| 1778306045 | 10.56° C | 67% | 1021.2 hPa | 0 mm | 0.45 m/s, 294° | 172 W/m² | - |
| 1778305985 | 10° C | 68% | 1021.2 hPa | 0 mm | 0 m/s | 170 W/m² | - |
| 1778305926 | 10° C | 69% | 1021.2 hPa | 0 mm | 0 m/s | 169 W/m² | - |
| 1778305865 | 10° C | 70% | 1021.3 hPa | 0 mm | 0 m/s | 167 W/m² | - |
* Rain latest hour (hover to see other rain measurements)
** Current wind speed in m/s (hover to see current wind gust speed)